Location: Unspecified
(41.5516°N, 88.1098°W)
Time: 02:23:34
(UTC-05:00)

Cosmos 2058 - Visible Passes

Search period start: 31 July 2014 00:00
Search period end: 10 August 2014 00:00
Orbit: 572 x 593 km, 82.5° (Epoch: 30 July)

Date Brightness Start Highest point End Pass type
(mag) Time Alt. Az. Time Alt. Az. Time Alt. Az.
31 Jul 4.4 03:00:58 10° N 03:04:50 34° ENE 03:06:56 21° SE visible
31 Jul 4.5 04:38:45 10° NW 04:41:39 18° W 04:43:17 15° WSW visible
01 Aug 3.7 03:06:41 10° N 03:10:46 48° E 03:12:10 34° SE visible
01 Aug 4.9 04:45:28 10° WNW 04:47:23 13° W 04:48:31 12° WSW visible
02 Aug 3.1 03:12:28 10° N 03:16:41 71° E 03:17:27 55° SE visible
03 Aug 2.7 03:18:20 10° N 03:22:33 80° W 03:22:46 76° SW visible
04 Aug 5.6 01:49:12 10° NE 01:50:55 12° ENE 01:51:47 12° E visible
04 Aug 3.1 03:24:17 10° NNW 03:28:09 53° WNW 03:28:09 53° WNW visible
05 Aug 5.3 01:54:11 10° NNE 01:56:57 17° ENE 01:57:11 17° ENE visible
05 Aug 3.8 03:30:20 10° NNW 03:33:33 35° WNW 03:33:33 35° WNW visible
06 Aug 5.0 01:59:33 10° NNE 02:02:37 23° ENE 02:02:37 23° ENE visible
06 Aug 4.4 03:36:29 10° NNW 03:38:59 24° WNW 03:38:59 24° WNW visible
07 Aug 4.7 02:05:07 10° NNE 02:08:04 29° NE 02:08:04 29° NE visible
07 Aug 4.9 03:42:48 10° NW 03:44:26 17° WNW 03:44:26 17° WNW visible
08 Aug 4.5 02:10:47 10° N 02:13:34 34° NNE 02:13:34 34° NNE visible
08 Aug 5.3 03:49:26 10° NW 03:49:55 11° WNW 03:49:55 11° WNW visible
09 Aug 4.4 02:16:33 10° N 02:19:04 34° N 02:19:04 34° N visible
